STARLINK-37117, 68212

Orbit data source: Space-Track

STARLINK-37117, 68212 is a payload satellite owned by SpaceX/Seattle (US) in SSO that was launched on Tue, 17 Mar 2026 UTC via an FALCON 9 launch vehicle from the Air Force Western Test Range (AFWTR). Payload-class satellites include a variety of spacecraft equipped with specific instruments for various scientific and technological missions. These include communications satellites like Starlink; space stations such as the ISS; scientific satellites like the Hubble; Earth observation satellites from companies like Planet Labs, Umbra, and HawkEye 360; GPS; miniature CubeSats for education and research; and military/defense satellites.

Loading next visibility...
Identifier
68212, 2026-053F
Orbit
SSO
Country
Flag of USUS
Related business
Manufacturer
SpaceX/Seattle
Mission
Operational spacecraft
Bus & Motor
STARLINK V2MO, Unknown motor
Mass
575 kg wet, ~530 kg dry
Launch date (UTC)
2026-03-17 (3 months ago)
Launch vehicle
FALCON 9
Launch site
Air Force Western Test Range (AFWTR)
Object type
Payload
Rocket body
Debris
Shape & HBR
Unknown shape, 17.7 m
Radar Cross Section
Large (>1 m²)

Expand to show TLE details & history
Last TLE update: 11 hours ago

TLE from 11 hours ago
0 STARLINK-37117
1 68212U 26053F   26171.38157185  .00016366  00000-0  50802-3 0  9990
2 68212  97.2876  46.4221 0000484  80.4855 279.6443 15.33454856 15954
Epoch: 2026-06-20T09:09Z
TLE epoch observation values (Epoch: 2026-06-20T09:09:27.807Z)
Latitude
0.00001°
Longitude
0.45923°
Altitude
468.57 km
Speed
7.632 km/s
True Right ascension
03h 05m 41s
True Declination
0° 00' 00"
Sunlit
Object was in daylight at epoch
Visualization orbit readout
Latitude
Unknown
Longitude
Unknown
Altitude
Unknown
Speed
Unknown
Apparent Right ascension
Unknown
Apparent Declination
Unknown
Sunlit
N/A
Visualization observer readout
Local Sidereal Time
07:22:41
Azimuth
Unknown
Elevation
Unknown
Doppler factor
Unknown
Orbital elements
Apogee altitude
462.788 km
Perigee altitude
462.126 km
Semi-major axis
6,840.594 km
Eccentricity
0.00005
Inclination
97.2876°
RAAN
46.4221°
Arg. of periapsis
80.4855°
True anomaly
279.63883°
Mean anomaly
279.6443°
Eccentric anomaly
279.64157°
Mean motion
3.83621 °/min
Orbital period
93.84 mins
BSTAR
0.00050802
Loading maneuver chart data...
Computing Atmospheric mass density...
Loading historical data...
Loading historical data...
Loading historical data...
Loading historical data...
Loading historical data...
Loading historical data...
Loading historical data...

Documentation

Showing up to 5 results
|